TimeMDT,TemperatureF,Dew PointF,Humidity,Sea Level PressureIn,VisibilityMPH,Wind Direction,Wind SpeedMPH,Gust SpeedMPH,PrecipitationIn,Events,Conditions,WindDirDegrees,DateUTC
12:15 AM,41.0,24.8,53,30.07,10.0,NW,19.6,-,N/A,,Overcast,310,2013-10-20 06:15:00
12:35 AM,39.2,26.6,61,30.06,10.0,WNW,24.2,-,N/A,,Overcast,300,2013-10-20 06:35:00
12:55 AM,39.2,26.6,61,30.06,10.0,NW,24.2,-,N/A,,Overcast,310,2013-10-20 06:55:00
1:15 AM,37.4,28.4,70,30.06,10.0,NW,26.5,-,N/A,,Overcast,310,2013-10-20 07:15:00
1:35 AM,35.6,28.4,75,30.06,10.0,NW,27.6,-,N/A,,Overcast,310,2013-10-20 07:35:00
1:55 AM,33.8,30.2,87,30.06,10.0,NW,24.2,-,N/A,,Overcast,320,2013-10-20 07:55:00
2:15 AM,33.8,30.2,87,30.07,10.0,NW,25.3,-,N/A,,Scattered Clouds,320,2013-10-20 08:15:00
2:35 AM,33.8,30.2,87,30.06,10.0,NNW,32.2,-,N/A,,Clear,330,2013-10-20 08:35:00
2:55 AM,32.0,30.2,93,30.06,10.0,NW,32.2,-,N/A,,Scattered Clouds,320,2013-10-20 08:55:00
3:15 AM,32.0,32.0,100,30.06,7.0,NW,36.8,-,N/A,,Overcast,320,2013-10-20 09:15:00
3:35 AM,32.0,32.0,100,30.07,0.2,NW,34.5,-,N/A,Fog,Fog,320,2013-10-20 09:35:00
3:55 AM,32.0,32.0,100,30.08,0.2,NW,32.2,-,N/A,Snow,Light Snow,320,2013-10-20 09:55:00
4:15 AM,32.0,32.0,100,30.07,0.2,NW,32.2,-,N/A,Snow,Light Snow,320,2013-10-20 10:15:00
4:35 AM,32.0,32.0,100,30.08,0.2,NW,35.7,-,N/A,Snow,Snow,320,2013-10-20 10:35:00
4:55 AM,32.0,32.0,100,30.08,-9999.0,NW,34.5,-,N/A,,Overcast,320,2013-10-20 10:55:00
5:15 AM,32.0,32.0,100,30.08,-9999.0,NW,42.6,-,N/A,,Overcast,320,2013-10-20 11:15:00
5:35 AM,32.0,32.0,100,30.08,-9999.0,NW,39.1,-,N/A,,Overcast,320,2013-10-20 11:35:00
5:55 AM,32.0,30.2,93,30.08,-9999.0,NW,39.1,-,N/A,,Overcast,310,2013-10-20 11:55:00
6:15 AM,30.2,30.2,100,30.08,-9999.0,WNW,42.6,46.0,N/A,,Overcast,300,2013-10-20 12:15:00
6:35 AM,30.2,30.2,100,30.09,-9999.0,WNW,38.0,-,N/A,,Overcast,300,2013-10-20 12:35:00
6:55 AM,30.2,30.2,100,30.07,-9999.0,WNW,44.9,-,N/A,,Overcast,300,2013-10-20 12:55:00
7:15 AM,30.2,30.2,100,30.08,-9999.0,WNW,43.7,-,N/A,,Overcast,300,2013-10-20 13:15:00
7:35 AM,30.2,30.2,100,30.08,-9999.0,WNW,47.2,50.6,N/A,,Overcast,300,2013-10-20 13:35:00
7:55 AM,30.2,30.2,100,30.08,-9999.0,WNW,44.9,-,N/A,,Overcast,300,2013-10-20 13:55:00
8:15 AM,30.2,30.2,100,30.10,-9999.0,WNW,41.4,-,N/A,,Overcast,300,2013-10-20 14:15:00
8:35 AM,30.2,30.2,100,30.12,-9999.0,WNW,38.0,-,N/A,,Overcast,300,2013-10-20 14:35:00
8:55 AM,30.2,30.2,100,30.12,-9999.0,WNW,39.1,-,N/A,,Overcast,300,2013-10-20 14:55:00
9:15 AM,30.2,30.2,100,30.10,-9999.0,WNW,43.7,-,N/A,,Overcast,300,2013-10-20 15:15:00
9:35 AM,30.2,30.2,100,30.10,-9999.0,WNW,43.7,-,N/A,,Overcast,300,2013-10-20 15:35:00
9:55 AM,30.2,30.2,100,30.11,-9999.0,WNW,41.4,-,N/A,,Overcast,300,2013-10-20 15:55:00
10:15 AM,30.2,30.2,100,30.12,-9999.0,WNW,40.3,-,N/A,,Overcast,300,2013-10-20 16:15:00
10:35 AM,32.0,30.2,93,30.13,-9999.0,WNW,36.8,-,N/A,,Unknown,300,2013-10-20 16:35:00
10:55 AM,32.0,30.2,93,30.14,-9999.0,WNW,33.4,-,N/A,,Unknown,300,2013-10-20 16:55:00
11:15 AM,32.0,32.0,100,30.14,-9999.0,WNW,31.1,-,N/A,,Overcast,300,2013-10-20 17:15:00
11:35 AM,32.0,32.0,100,30.14,-9999.0,WNW,29.9,-,N/A,,Unknown,300,2013-10-20 17:35:00
11:55 AM,32.0,32.0,100,30.15,-9999.0,WNW,29.9,-,N/A,,Unknown,300,2013-10-20 17:55:00
12:15 PM,32.0,30.2,93,30.15,-9999.0,WNW,27.6,-,N/A,,Mostly Cloudy,300,2013-10-20 18:15:00
12:35 PM,32.0,30.2,93,30.15,-9999.0,WNW,27.6,-,N/A,,Overcast,300,2013-10-20 18:35:00
12:55 PM,32.0,30.2,93,30.15,-9999.0,NW,28.8,-,N/A,,Overcast,310,2013-10-20 18:55:00
1:15 PM,32.0,32.0,100,30.15,-9999.0,WNW,27.6,-,N/A,,Unknown,300,2013-10-20 19:15:00
1:35 PM,32.0,32.0,100,30.15,-9999.0,NW,25.3,-,N/A,,Unknown,310,2013-10-20 19:35:00
1:55 PM,32.0,30.2,93,30.15,-9999.0,NW,26.5,-,N/A,,Unknown,310,2013-10-20 19:55:00
2:15 PM,32.0,30.2,93,30.14,-9999.0,NW,26.5,-,N/A,,Unknown,320,2013-10-20 20:15:00
2:35 PM,32.0,30.2,93,30.14,-9999.0,NW,28.8,-,N/A,,Unknown,310,2013-10-20 20:35:00
2:55 PM,33.8,30.2,87,30.14,-9999.0,NW,25.3,-,N/A,,Scattered Clouds,310,2013-10-20 20:55:00
3:15 PM,33.8,30.2,87,30.14,-9999.0,NW,25.3,-,N/A,,Scattered Clouds,310,2013-10-20 21:15:00
3:35 PM,33.8,30.2,87,30.14,-9999.0,NW,24.2,-,N/A,,Mostly Cloudy,310,2013-10-20 21:35:00
3:55 PM,33.8,30.2,87,30.14,-9999.0,NW,20.7,-,N/A,,Scattered Clouds,310,2013-10-20 21:55:00
4:15 PM,33.8,30.2,87,30.15,-9999.0,NW,21.9,-,N/A,,Mostly Cloudy,320,2013-10-20 22:15:00
4:35 PM,33.8,30.2,87,30.15,-9999.0,NW,21.9,-,N/A,,Overcast,320,2013-10-20 22:35:00
4:55 PM,33.8,30.2,87,30.16,-9999.0,NW,20.7,-,N/A,,Overcast,320,2013-10-20 22:55:00
5:15 PM,33.8,30.2,87,30.16,-9999.0,NW,19.6,-,N/A,,Mostly Cloudy,310,2013-10-20 23:15:00
5:35 PM,33.8,30.2,87,30.16,-9999.0,NW,19.6,-,N/A,,Unknown,310,2013-10-20 23:35:00
5:55 PM,32.0,30.2,93,30.17,-9999.0,NW,17.3,-,N/A,,Unknown,310,2013-10-20 23:55:00
6:15 PM,32.0,30.2,93,30.18,-9999.0,NW,19.6,-,N/A,,Unknown,310,2013-10-21 00:15:00
6:35 PM,32.0,28.4,87,30.18,-9999.0,NW,19.6,-,N/A,,Clear,320,2013-10-21 00:35:00
6:55 PM,32.0,28.4,87,30.18,-9999.0,NNW,18.4,-,N/A,,Unknown,330,2013-10-21 00:55:00
7:15 PM,32.0,28.4,87,30.18,-9999.0,NNW,16.1,-,N/A,,Clear,330,2013-10-21 01:15:00
7:35 PM,32.0,28.4,87,30.18,-9999.0,NW,11.5,-,N/A,,Clear,320,2013-10-21 01:35:00
7:55 PM,32.0,26.6,80,30.19,-9999.0,NW,10.4,-,N/A,,Clear,320,2013-10-21 01:55:00
8:15 PM,32.0,26.6,80,30.19,-9999.0,NW,9.2,-,N/A,,Clear,320,2013-10-21 02:15:00
8:35 PM,33.8,26.6,75,30.20,-9999.0,NW,8.1,-,N/A,,Scattered Clouds,320,2013-10-21 02:35:00
8:55 PM,33.8,26.6,75,30.20,-9999.0,NNW,8.1,-,N/A,,Mostly Cloudy,330,2013-10-21 02:55:00
9:15 PM,33.8,26.6,75,30.20,-9999.0,NW,8.1,-,N/A,,Mostly Cloudy,320,2013-10-21 03:15:00
9:35 PM,33.8,26.6,75,30.20,-9999.0,NNW,5.8,-,N/A,,Overcast,330,2013-10-21 03:35:00
9:55 PM,33.8,26.6,75,30.20,-9999.0,NW,3.5,-,N/A,,Scattered Clouds,320,2013-10-21 03:55:00
10:15 PM,33.8,26.6,75,30.20,-9999.0,Calm,Calm,-,N/A,,Clear,0,2013-10-21 04:15:00
10:35 PM,32.0,28.4,87,30.21,-9999.0,South,6.9,-,N/A,,Clear,190,2013-10-21 04:35:00
10:55 PM,33.8,28.4,81,30.21,-9999.0,South,10.4,-,N/A,,Clear,180,2013-10-21 04:55:00
11:15 PM,32.0,28.4,87,30.21,-9999.0,South,9.2,-,N/A,,Clear,170,2013-10-21 05:15:00
11:35 PM,32.0,28.4,87,30.21,-9999.0,South,10.4,-,N/A,,Clear,170,2013-10-21 05:35:00
11:55 PM,33.8,28.4,81,30.21,-9999.0,South,11.5,-,N/A,,Clear,180,2013-10-21 05:55:00